Погода в Ивановке

Украина / Донецкая область     48°15′32″N   37°26′48″E
темп.,
°C
ветер,
м/с
пор.,
м/с
влажн.,
%
обл.,
%
осадки,
мм/ч
давл.,
гПа
погр.,
м
13 мая, чт
чт1300:00+7юв48964 0.1 1014186
03:00+7ююв349584 0.1 101452
06:00+8ююв239722 0.0 101480
09:00+14ю34693 0.0 1013633
12:00+18ю465518 0.0 10131323
15:00+21ююз4649100 0.0 10131594
18:00+20ю2463100 0.0 1013181
21:00+15ююв337416 0.0 101420
14 мая, пт
пт1400:00+13в348492 0.0 101349
03:00+13в4109254 0.0 1012181
06:00+14вюв31187100 0.0 1011289
09:00+19ююв61068100 0.0 1011513
12:00+23вюв465694 0.0 1010628
15:00+25ю574896 0.0 10101290
18:00+24ю5857100 0.0 1010371
21:00+17ю477291 0.0 101194
15 мая, сб
сб1500:00+15юз47790 0.1 1011104
03:00+13зюз3587100 0.1 101383
06:00+14зсз228246 0.1 101343
09:00+20з33565 0.1 1014564
12:00+23з33475 0.0 10141261
15:00+24юз334595 0.0 10141820
18:00+24зюз124798 0.0 10131570
21:00+18ссв2259100 0.0 101412
16 мая, вс
вс1600:00+16ссв33660 0.0 101330
03:00+15св47722 0.0 1013100
06:00+15св498199 0.0 1013170
09:00+22всв586279 0.0 1012570
12:00+25св675590 0.0 10111236
15:00+27св674991 0.0 10091529
18:00+25в585895 0.0 1008345
21:00+19всв456856 0.0 100865
17 мая, пн
пн1700:00+17всв46715 0.0 100774
03:00+16вюв4107167 0.0 1007170
06:00+16вюв513615 0.0 1006279
09:00+21вюв794617 0.0 1006628
12:00+25юв674160 0.0 1006991
15:00+27ю454510 0.0 10061529
18:00+26юв475325 0.0 1006408
21:00+20ю477068 0.0 1007116